Regional Weather Roundup
Issued by NWS

Home | Current Version | Previous Version | Graphics & Text | Print | Product List | Glossary On
Versions: 1 2 3 4 5 6 7 8 9 10 11 12 13 14 15 16 17 18 19 20 21 22 23 24 25 26 27 28
000
ASUS45 KCYS 300910
RWRWY

WYOMING REGIONAL WEATHER ROUNDUP
NATIONAL WEATHER SERVICE CHEYENNE WY
300 AM MDT SAT APR 30 2016

NOTE:  "FAIR" INDICATES FEW OR NO CLOUDS BELOW 12,000 FEET
WITH NO SIGNIFICANT WEATHER AND/OR OBSTRUCTIONS TO VISIBILITY.

WYZ001-301000-
YELLOWSTONE NATIONAL PARK

CITY           SKY/WX    TMP DP  RH WIND       PRES   REMARKS
LK YELLOWSTONE   N/A     31  24  75 CALM      29.99S
W YELLOWSTONE  NOT AVBL

$$
WYZ002>013-054>058-071-098>099-301000-
NORTHERN WYOMING

CITY           SKY/WX    TMP DP  RH WIND       PRES   REMARKS
JACKSON        FAIR      34  32  93 N9        29.94S WCI  26
CODY           CLOUDY    37  36  93 N5        30.00R WCI  34
GREYBULL       CLOUDY    45  34  65 W9        29.97F
WORLAND        CLOUDY    41  37  86 W5        29.99S
SHERIDAN       CLOUDY    40  36  86 NE3       30.04S
BUFFALO          N/A    N/A N/A N/A MISG      30.02S
GILLETTE       CLOUDY    38  34  85 NE8       30.01S WCI  32
HULETT         DRIZZLE   37  36  93 N5        30.04F WCI  34
NEWCASTLE      CLOUDY    37  30  75 N3        30.00S

$$
WYZ014>020-022>026-101>103-301000-
CENTRAL WYOMING

CITY           SKY/WX    TMP DP  RH WIND       PRES   REMARKS
BIG PINEY      CLOUDY    33  29  85 S7        29.94S WCI  27
PINEDALE       LGT SNOW  32  32 100 CALM      29.95S
DUBOIS         LGT SNOW  28  28 100 SE6       29.96S WCI  22
LANDER         LGT SNOW  33  31  92 W6        29.97S FOG     WCI  28
RIVERTON       CLOUDY    35  33  92 NW9       29.99S WCI  28
CASPER         LGT SNOW  32  31  96 NE6       29.97S FOG     WCI  26
DOUGLAS        LGT SNOW  32  32 100 CALM      29.98S VSB 3/4

$$
WYZ021-027>030-104>119-301000-
SOUTHERN WYOMING

CITY           SKY/WX    TMP DP  RH WIND       PRES   REMARKS
EVANSTON       CLOUDY    33  28  81 E10       29.91S WCI  25
KEMMERER         N/A     32  28  86 NE7       29.94S WCI  26
FORT BRIDGER   CLOUDY    32  32 100 E3        29.96R
ROCK SPRINGS   LGT SNOW  32  29  88 NE13      29.93S FOG     WCI  22
DIXON          LGT SNOW  33  32  96 CALM      29.87S
RAWLINS        CLOUDY    30  27  88 E8        29.91S FOG     WCI  22
SARATOGA       CLOUDY    32  30  93 NW3       29.90R
LARAMIE        LGT SNOW  26  24  92 N8        29.87F FOG     WCI  18
CHEYENNE       LGT SNOW  30  27  88 N13       29.85F FOG     WCI  20
TORRINGTON     LGT SNOW  33  32  96 N7        29.92F FOG     WCI  27
PINE BLUFFS    FLURRIES  30  30 100 N9        29.89S WCI  22

$$




USA.gov is the U.S. government's official web portal to all federal, state and local government web resources and services.